[[{"header":{"parameterUnit":"m.s-1","parameterCategory":1,"la1":30.2991,"la2":30.254,"lo1":-89.0895,"lo2":-89.0444,"dy":0.0017,"dx":0.0017,"nx":28,"ny":28,"refTime":"2025-03-26T21:00:00:Z","depth":0,"parameterNumber":2,"parameterNumberName":"U-component_of_WINDS"},"data":[0,0,0,0,0,0,0,0,0,0,0,0,0,0,0,0,0,0,0,0,0,0,0,0,0,0,0,0,0,0,0,0,0,0,0,0,0,0,0,0,0,0,0,0,0,0,0,0,0,0,0,0,0,0,0,0,0,0,-5.621,-5.6211,0,-5.6303,-5.6304,-5.6305,-5.6303,-5.6301,-5.63,-5.6299,-5.6392,-5.6396,-5.6399,0,0,0,0,0,0,0,0,0,0,0,0,0,-5.603,-5.6033,-5.621,-5.6211,-5.6213,-5.6303,-5.6304,-5.6306,-5.6303,-5.6301,-5.63,-5.6298,-5.6391,-5.6395,-5.64,0,0,0,0,0,0,0,0,0,0,0,0,0,-5.6114,-5.6035,-5.621,-5.6222,-5.6224,-5.6303,-5.6305,-5.6306,-5.6303,-5.6301,-5.6299,-5.6298,-5.6389,-5.6395,-5.64,-5.6472,0,0,-5.6417,-5.6419,0,0,0,0,0,0,0,0,-5.6109,-5.6121,-5.6219,-5.6221,-5.6224,-5.6289,-5.6275,-5.6362,-5.6304,-5.6273,-5.6299,-5.6297,-5.6359,-5.6367,-5.6389,-5.6477,-5.6481,-5.6417,-5.6421,-5.6423,-5.6425,0,0,0,0,0,0,0,-5.6104,-5.6117,-5.6247,-5.6221,-5.6223,-5.6223,-5.6233,-5.6292,-5.6326,-5.6276,-5.6276,-5.6287,-5.636,-5.6383,-5.6391,-5.6482,-5.6417,-5.6422,-5.6426,-5.6428,-5.6636,-5.6638,0,0,0,0,0,0,-5.6095,-5.6112,-5.6244,-5.625,-5.6161,-5.6228,-5.6239,-5.627,-5.6325,-5.6332,-5.6288,-5.6286,-5.6375,-5.6384,-5.6394,-5.6482,-5.6423,-5.6428,-5.6431,-5.6634,-5.6637,-5.6639,0,0,0,0,0,0,-5.6092,-5.6107,-5.624,-5.6181,-5.6198,-5.6233,-5.6268,-5.6273,-5.6296,-5.6335,-5.6341,-5.6306,-5.6374,-5.6386,-5.6454,-5.6486,-5.6431,-5.6436,-5.6631,-5.6635,-5.6638,-5.6659,0,0,0,0,0,0,-5.6086,-5.6106,-5.6133,-5.6182,-5.6201,-5.6298,-5.627,-5.6276,-5.6306,-5.6304,-5.6353,-5.6359,-5.6373,-5.6445,-5.6459,-5.6492,-5.644,-5.6629,-5.6633,-5.6637,-5.6656,-5.6663,-5.6669,0,0,0,0,0,-5.608,-5.6135,-5.6134,-5.615,-5.6236,-5.63,-5.6311,-5.6327,-5.6309,-5.6336,-5.6362,-5.6357,-5.6481,-5.6452,-5.6468,-5.6503,-5.6626,-5.6632,-5.6637,-5.6653,-5.6662,-5.6669,0,0,0,0,0,0,-5.6087,-5.6141,-5.6141,-5.6213,-5.6252,-5.6299,-5.6334,-5.6335,-5.6379,-5.6375,-5.6394,-5.6405,-5.6472,-5.6495,-5.6462,-5.6577,-5.6551,-5.656,-5.6558,-5.6567,-5.6574,-5.6565,-5.6445,0,0,0,0,0,-5.6097,-5.6145,-5.6189,-5.6249,-5.6268,-5.6298,-5.6326,-5.6336,-5.6377,-5.6392,-5.6422,-5.6462,-5.651,-5.654,-5.6586,-5.6661,-5.6671,-5.6693,-5.67,-5.6705,-5.6711,-5.6753,-5.6763,-5.6656,-5.6656,-5.6656,0,0,-5.6118,-5.6154,-5.6182,-5.6251,-5.6282,-5.6331,-5.6312,-5.6363,-5.6399,-5.64,-5.6465,-5.6489,-5.6534,-5.6606,-5.6639,-5.6627,-5.6744,-5.6711,-5.6715,-5.6718,-5.6759,-5.6769,-5.6778,-5.6659,-5.6658,-5.6658,0,0,-5.618,-5.6212,-5.6265,-5.6298,-5.6346,-5.6367,-5.638,-5.6428,-5.6444,-5.651,-5.6512,-5.6556,-5.6638,-5.667,-5.6697,-5.6777,-5.6774,-5.6792,-5.6825,-5.6866,-5.6874,-5.6882,-5.6909,-5.6919,-5.6799,-5.6799,-5.6799,0,-5.6199,-5.6272,-5.6292,-5.6345,-5.6376,-5.6381,-5.6435,-5.6466,-5.6526,-5.6547,-5.6534,-5.6639,-5.6669,-5.6749,-5.6769,-5.6791,-5.6806,-5.6784,-5.6872,-5.6879,-5.6887,-5.6913,-5.6923,-5.68,-5.68,-5.68,-5.68,0,-5.6293,-5.6345,-5.6382,-5.6442,-5.6477,-5.653,-5.6559,-5.6592,-5.6601,-5.6623,-5.6691,-5.6729,-5.6784,-5.6804,-5.6812,-5.6885,-5.6877,-5.6868,-5.6842,-5.6898,-5.6923,-5.6933,-5.6803,-5.6802,-5.6801,-5.6801,0,0,-5.6357,-5.6431,-5.6444,-5.6472,-5.6528,-5.6568,-5.6623,-5.6677,-5.6705,-5.6749,-5.6794,-5.6866,-5.6859,-5.689,-5.6902,-5.6938,-5.6999,-5.6925,-5.6926,-5.6936,-5.7082,-5.7086,-5.7097,-5.6999,-5.7002,-5.7003,-5.7078,0,-5.6424,-5.652,-5.6542,-5.6625,-5.6673,-5.6682,-5.6729,-5.6769,-5.6793,-5.6837,-5.6863,-5.6913,-5.69,-5.6919,-5.6956,-5.6983,-5.7028,-5.6979,-5.7041,-5.7043,-5.7026,-5.7111,-5.7115,-5.7183,-5.7088,-5.7089,-5.7091,0,-5.6512,-5.6559,-5.6647,-5.6699,-5.672,-5.6763,-5.6816,-5.6859,-5.6905,-5.6919,-5.6957,-5.6966,-5.7024,-5.6999,-5.7079,-5.7045,-5.7073,-5.7091,-5.7094,-5.7097,-5.7067,-5.7114,-5.7205,-5.7214,-5.7106,-5.7105,-5.7104,0,-5.6548,-5.6634,-5.6698,-5.6722,-5.6784,-5.6814,-5.6841,-5.6886,-5.6918,-5.6966,-5.6987,-5.704,-5.7068,-5.711,-5.7134,-5.7113,-5.7212,-5.7189,-5.7225,-5.7224,-5.7241,-5.7239,-5.7335,-5.7264,-5.7264,-5.7264,-5.7264,0,-5.6618,-5.6671,-5.6715,-5.6754,-5.6814,-5.684,-5.69,-5.6927,-5.6968,-5.7012,-5.7025,-5.7066,-5.7097,-5.7144,-5.7164,-5.7227,-5.724,-5.7253,-5.7257,-5.725,-5.7248,-5.7266,-5.726,-5.7267,-5.7266,-5.7266,-5.7265,0,-5.6665,-5.6697,-5.6767,-5.6823,-5.6838,-5.688,-5.6927,-5.6966,-5.6992,-5.7049,-5.7064,-5.7104,-5.7159,-5.7189,-5.7258,-5.7272,-5.7342,-5.7345,-5.7326,-5.7327,-5.7361,-5.7357,-5.7469,-5.7485,-5.7406,-5.7407,-5.7407,0,-5.6706,-5.6747,-5.6808,-5.684,-5.6868,-5.6919,-5.6953,-5.6981,-5.7016,-5.7074,-5.7106,-5.7163,-5.721,-5.7299,-5.7334,-5.7388,-5.739,-5.7427,-5.7398,-5.7391,-5.7389,-5.7385,-5.7389,-5.743,-5.743,-5.7431,-5.7432,0,-5.6774,-5.6789,-5.6838,-5.6893,-5.6934,-5.6978,-5.7022,-5.7048,-5.7084,-5.7123,-5.718,-5.7217,-5.729,-5.7346,-5.7403,-5.7432,-5.7438,-5.7441,-5.7452,-5.7444,-5.743,-5.7436,-5.7337,-5.7437,-5.7437,-5.7436,-5.7436,-5.7436,-5.6818,-5.6856,-5.6905,-5.696,-5.6997,-5.7039,-5.7078,-5.7111,-5.716,-5.7221,-5.7236,-5.7297,-5.7345,-5.7423,-5.7454,-5.7503,-5.7495,-5.7511,-5.7515,-5.7518,-5.7518,-5.7426,-5.7514,-5.7514,-5.7514,-5.7513,-5.7513,0,-5.6886,-5.6919,-5.6969,-5.7032,-5.7075,-5.708,-5.713,-5.7166,-5.722,-5.7265,-5.7312,-5.7379,-5.7435,-5.7477,-5.7534,-5.7565,-5.7569,-5.7579,-5.7575,-5.7582,-5.7522,-5.7506,-5.7574,-5.7574,-5.7574,-5.7574,-5.7574,-5.7574,-5.6925,-5.699,-5.7011,-5.7095,-5.7128,-5.7188,-5.7216,-5.7256,-5.7292,-5.7367,-5.7414,-5.7442,-5.7486,-5.7547,-5.7599,-5.761,-5.763,-5.7639,-5.7649,-5.7592,-5.7586,-5.7579,-5.7564,-5.7643,-5.7643,-5.7704,-5.7705,-5.7705]},{"header":{"parameterUnit":"m.s-1","parameterCategory":1,"la1":30.2991,"la2":30.254,"lo1":-89.0895,"lo2":-89.0444,"dy":0.0017,"dx":0.0017,"nx":28,"ny":28,"refTime":"2025-03-26T21:00:00:Z","depth":0,"parameterNumber":3,"parameterNumberName":"V-component_of_WINDS"},"data":[0,0,0,0,0,0,0,0,0,0,0,0,0,0,0,0,0,0,0,0,0,0,0,0,0,0,0,0,0,0,0,0,0,0,0,0,0,0,0,0,0,0,0,0,0,0,0,0,0,0,0,0,0,0,0,0,0,0,2.522,2.5221,0,2.5322,2.5323,2.5324,2.5435,2.5437,2.5439,2.544,2.5538,2.5539,2.554,0,0,0,0,0,0,0,0,0,0,0,0,0,2.5118,2.5119,2.522,2.5221,2.5222,2.5321,2.5323,2.5324,2.5435,2.5437,2.5439,2.5441,2.5538,2.5539,2.554,0,0,0,0,0,0,0,0,0,0,0,0,0,2.5185,2.512,2.522,2.529,2.5297,2.5321,2.5323,2.5325,2.5435,2.5437,2.544,2.5442,2.5537,2.5539,2.554,2.5502,0,0,2.5545,2.5546,0,0,0,0,0,0,0,0,2.5181,2.5189,2.5278,2.5285,2.5293,2.5369,2.5323,2.5384,2.5434,2.5382,2.544,2.5443,2.5479,2.5486,2.5499,2.5506,2.551,2.5546,2.5547,2.5547,2.5548,0,0,0,0,0,0,0,2.5176,2.5185,2.526,2.5279,2.5289,2.5315,2.5327,2.5335,2.5416,2.5387,2.5395,2.5406,2.5484,2.5497,2.5502,2.5512,2.5546,2.5547,2.5548,2.5549,2.5494,2.5492,0,0,0,0,0,0,2.5162,2.518,2.5257,2.5263,2.5242,2.5315,2.5329,2.5342,2.5416,2.543,2.5404,2.5411,2.5494,2.55,2.5506,2.5467,2.5547,2.5549,2.555,2.5497,2.5494,2.5491,0,0,0,0,0,0,2.5159,2.5167,2.5253,2.5224,2.5237,2.5314,2.5328,2.5342,2.5356,2.5429,2.5443,2.5403,2.5496,2.5504,2.5503,2.5472,2.555,2.5551,2.55,2.5496,2.5492,2.5387,0,0,0,0,0,0,2.5156,2.5166,2.5152,2.5223,2.5238,2.5248,2.5326,2.5343,2.536,2.537,2.5432,2.5445,2.5498,2.55,2.5505,2.5476,2.5552,2.5503,2.5498,2.5494,2.5394,2.5381,2.5369,0,0,0,0,0,2.5152,2.5117,2.5151,2.516,2.5223,2.5246,2.5255,2.5319,2.5357,2.5344,2.5391,2.5443,2.5475,2.5499,2.5505,2.5476,2.5505,2.5499,2.5494,2.5399,2.5383,2.537,0,0,0,0,0,0,2.5038,2.5127,2.5166,2.5154,2.5192,2.5265,2.525,2.5299,2.5326,2.5334,2.5411,2.5424,2.5414,2.5445,2.547,2.5444,2.5498,2.5493,2.5423,2.5409,2.5397,2.5389,2.5554,0,0,0,0,0,2.5012,2.5025,2.5102,2.5083,2.51,2.5172,2.5184,2.5231,2.5273,2.5289,2.5335,2.5372,2.5392,2.5402,2.5423,2.5399,2.5415,2.5383,2.537,2.536,2.5355,2.5346,2.5333,2.5473,2.5473,2.5473,0,0,2.4957,2.5007,2.501,2.5061,2.5097,2.5107,2.5185,2.5192,2.52,2.5289,2.5292,2.5328,2.5374,2.5362,2.5359,2.5388,2.532,2.5353,2.5344,2.5345,2.5339,2.5326,2.5314,2.547,2.547,2.5471,0,0,2.4863,2.4902,2.4892,2.4927,2.498,2.5029,2.5026,2.5093,2.5121,2.5125,2.5193,2.5203,2.5234,2.5265,2.5284,2.5206,2.5255,2.521,2.5145,2.5136,2.5125,2.5115,2.5088,2.5077,2.5205,2.5205,2.5205,0,2.4787,2.4808,2.488,2.4885,2.4905,2.4989,2.498,2.5009,2.5065,2.5077,2.5109,2.5151,2.5188,2.5185,2.5167,2.5179,2.5179,2.5203,2.5121,2.5112,2.5104,2.5079,2.5068,2.5199,2.52,2.52,2.5201,0,2.4713,2.4726,2.4711,2.4767,2.4786,2.4783,2.4854,2.4865,2.491,2.4955,2.4959,2.5007,2.504,2.5043,2.5086,2.5047,2.5064,2.5107,2.5163,2.5084,2.5061,2.5052,2.5191,2.5193,2.5195,2.5196,0,0,2.4547,2.4646,2.4639,2.4667,2.4733,2.4744,2.4745,2.4781,2.4788,2.4825,2.4828,2.4853,2.4895,2.4917,2.4965,2.4956,2.4892,2.5002,2.5004,2.498,2.4853,2.4819,2.4807,2.4926,2.4924,2.4923,2.4849,0,2.4465,2.4475,2.4541,2.4531,2.4544,2.4626,2.4627,2.4667,2.471,2.4726,2.4773,2.479,2.4843,2.4858,2.4853,2.4901,2.4868,2.4907,2.4928,2.4928,2.4914,2.4795,2.476,2.4687,2.4841,2.4839,2.4838,0,2.437,2.4405,2.4396,2.4465,2.4473,2.4473,2.4512,2.4528,2.4575,2.4607,2.4633,2.4688,2.4693,2.4746,2.4755,2.478,2.4793,2.4818,2.4817,2.482,2.4878,2.4796,2.4666,2.4655,2.4825,2.4826,2.4827,0,2.4251,2.4295,2.4297,2.4317,2.4397,2.4396,2.4429,2.4479,2.4497,2.453,2.4543,2.4575,2.4593,2.4616,2.4678,2.4711,2.468,2.4738,2.4705,2.4704,2.4694,2.4694,2.4564,2.4702,2.4702,2.4703,2.4703,0,2.4153,2.4144,2.4245,2.4245,2.4239,2.4315,2.4306,2.4347,2.4392,2.4401,2.4473,2.4479,2.4561,2.4577,2.4626,2.4626,2.4633,2.4658,2.4671,2.4652,2.4648,2.466,2.4667,2.47,2.4701,2.4701,2.4702,0,2.4018,2.4085,2.4092,2.4169,2.4188,2.418,2.4245,2.4248,2.4297,2.4308,2.4314,2.4389,2.4412,2.4477,2.4515,2.4548,2.4534,2.4558,2.4518,2.4526,2.4491,2.4493,2.4364,2.4351,2.4497,2.4495,2.4494,0,2.395,2.3947,2.4024,2.4037,2.4068,2.4087,2.4107,2.4182,2.4199,2.4255,2.4251,2.428,2.4308,2.434,2.4397,2.4427,2.4453,2.4406,2.4457,2.4439,2.4452,2.4452,2.4452,2.4394,2.4392,2.439,2.4389,0,2.3823,2.3858,2.3884,2.3923,2.3945,2.3978,2.4015,2.4021,2.4106,2.4121,2.4147,2.4168,2.421,2.4238,2.4278,2.431,2.4363,2.4372,2.4367,2.4346,2.4324,2.4336,2.4487,2.4375,2.4376,2.4377,2.4378,2.4378,2.3721,2.3722,2.3778,2.3805,2.3842,2.3875,2.3883,2.3934,2.3957,2.3999,2.4041,2.4063,2.4112,2.4172,2.4201,2.4218,2.4246,2.4237,2.4235,2.4231,2.4223,2.4322,2.4225,2.4226,2.4226,2.4227,2.4227,0,2.3598,2.3639,2.3663,2.3715,2.3737,2.3788,2.3832,2.3846,2.3865,2.3908,2.3934,2.3965,2.3993,2.4053,2.4086,2.4088,2.4114,2.4095,2.4095,2.4102,2.4196,2.4197,2.4074,2.4074,2.4074,2.4074,2.4074,2.4074,2.3537,2.3542,2.3583,2.3607,2.3648,2.3671,2.3692,2.3724,2.3759,2.379,2.3815,2.3855,2.3905,2.3943,2.3971,2.3988,2.3997,2.397,2.3994,2.408,2.4095,2.4109,2.4111,2.3971,2.3971,2.3899,2.3899,2.3898]}]]